Location: ???? ?????
(30.0052°N, 31.2891°E)
Time: 20:45:13
(UTC+00:00)

Cosmos 1331 Rocket - Pass Details

Date: 09 October 2022
Orbit: 748 x 778 km, 74.0° (Epoch: 06 December)

Event Time Altitude Azimuth Distance (km) Brightness Sun altitude
Exits shadow 01:32:15 13° 0° (N) 2,080 6.3 -31.1°
Drops below altitude 10° 01:32:47 10° 2° (N) 2,273 6.6 -31.0°
Sets 01:35:15 0° 9° (N) 3,203 7.5 -30.5°
